Weather History for KDTL - November, 2012

Change the Weather History Date:

Saturday, November 24, 2012

  Actual Average Record
Temperature  
Mean Temperature 18 °F -  
Max Temperature 30 °F 31 °F 55 °F (1984)
Min Temperature 6 °F 9 °F -18 °F (1985)
Degree Days  
Heating Degree Days 47    
Moisture  
Dew Point 15 °F    
Average Humidity 87    
Maximum Humidity 100    
Minimum Humidity 74    
Precipitation  
Precipitation 0.00 in - - ()
Sea Level Pressure  
Sea Level Pressure 29.99 in    
Wind  
Wind Speed 6 mph (SSE)    
Max Wind Speed 20 mph    
Max Gust Speed 29 mph    
Visibility 8 miles    
Events Snow    
Averages and records for this station are not official NWS values.
T = Trace of Precipitation, MM = Missing Value Source: NWS Daily Summary

Daily Weather History Graph

Daily Weather History Graph

Search for Another Location

Airport or City:

Trip Planner

Search our weather history database for the weather conditions in past years. The results will help you decide how hot, cold, wet, or windy it might be!

Date:

Astronomy

Nov. 24, 2012 Rise Set
Actual Time 7:39 AM CST 4:40 PM CST
Civil Twilight 7:05 AM CST 5:14 PM CST
Nautical Twilight 6:28 AM CST 5:52 PM CST
Astronomical Twilight 5:51 AM CST 6:28 PM CST
Moon 2:35 PM CST (11/24) 3:46 AM CST (11/24)
Length of Visible Light 10h 09m
Length of Day
9h 01m
Waxing Gibbous, 87% of the Moon is Illuminated
Nov 24
Waxing Gibbous
Nov 28
Full
Dec 6
Last Quarter
Dec 13
New
Dec 19
First Quarter

Hourly Weather History & Observations

Time (CST) Temp. Windchill Dew Point Humidity Pressure Visibility Wind Dir Wind Speed Gust Speed Precip Events Conditions
12:12 AM 8.6 °F 0.1 °F 6.8 °F 92% 30.34 in 10.0 mi NW 4.6 mph - N/A Snow Light Snow
12:33 AM 8.6 °F - 6.8 °F 92% 30.32 in 10.0 mi Calm Calm - N/A Snow Light Snow
12:52 AM 8.6 °F - 6.8 °F 92% 30.31 in 10.0 mi Calm Calm - N/A Snow Light Snow
1:13 AM 8.6 °F - 6.8 °F 92% 30.29 in 10.0 mi Calm Calm - N/A Snow Light Snow
1:32 AM 8.6 °F - 5.0 °F 85% 30.29 in 10.0 mi Calm Calm - N/A   Scattered Clouds
1:53 AM 8.6 °F - 6.8 °F 92% 30.29 in 7.0 mi Calm Calm - N/A   Scattered Clouds
2:12 AM 8.6 °F - 5.0 °F 85% 30.28 in 10.0 mi Calm Calm - N/A Snow Light Snow
2:32 AM 8.6 °F - 5.0 °F 85% 30.27 in 10.0 mi Calm Calm - N/A   Mostly Cloudy
2:53 AM 8.6 °F - 5.0 °F 85% 30.27 in 10.0 mi Calm Calm - N/A   Scattered Clouds
3:12 AM 8.6 °F 2.0 °F 5.0 °F 85% 30.26 in 10.0 mi East 3.5 mph - N/A Snow Light Snow
3:32 AM 8.6 °F 2.0 °F 5.0 °F 85% 30.25 in 7.0 mi SE 3.5 mph - N/A Snow Light Snow
3:53 AM 6.8 °F -0.1 °F 5.0 °F 92% 30.24 in 0.8 mi SE 3.5 mph - N/A Snow Snow
4:12 AM 8.6 °F - 5.0 °F 85% 30.23 in 0.8 mi Calm Calm - N/A Snow Snow
4:32 AM 8.6 °F - 5.0 °F 85% 30.23 in 0.5 mi Calm Calm - N/A Snow Heavy Snow
4:53 AM 8.6 °F - 5.0 °F 85% 30.21 in 1.2 mi Calm Calm - N/A Snow Snow
5:12 AM 8.6 °F -1.3 °F 5.0 °F 85% 30.21 in 0.8 mi South 5.8 mph - N/A Snow Light Snow
5:33 AM 10.4 °F -0.4 °F 8.6 °F 92% 30.19 in 3.0 mi SSE 6.9 mph - N/A Snow Light Snow
5:53 AM 10.4 °F -2.4 °F 8.6 °F 92% 30.17 in 5.0 mi SSE 9.2 mph - N/A Snow Light Snow
6:12 AM 10.4 °F -1.5 °F 8.6 °F 92% 30.17 in 5.0 mi SSE 8.1 mph - N/A Snow Light Snow
6:33 AM 10.4 °F -0.4 °F 8.6 °F 92% 30.16 in 4.0 mi SSE 6.9 mph - N/A Snow Light Snow
6:53 AM 10.4 °F -1.5 °F 8.6 °F 92% 30.15 in 4.0 mi SSE 8.1 mph - N/A Snow Light Snow
7:12 AM 10.4 °F -4.1 °F 10.4 °F 100% 30.14 in 4.0 mi SE 11.5 mph - N/A Snow Light Snow
7:33 AM 10.4 °F -4.1 °F 8.6 °F 92% 30.13 in 4.0 mi SSE 11.5 mph - N/A Snow Light Snow
7:53 AM 10.4 °F -2.4 °F 10.4 °F 100% 30.13 in 7.0 mi SSE 9.2 mph - N/A Snow Light Snow
8:12 AM 10.4 °F -5.4 °F 10.4 °F 100% 30.10 in 7.0 mi SE 13.8 mph - N/A Snow Light Snow
8:33 AM 12.2 °F -0.2 °F 10.4 °F 92% 30.10 in 5.0 mi SSE 9.2 mph - N/A Snow Light Snow
8:53 AM 12.2 °F -0.2 °F 10.4 °F 92% 30.09 in 5.0 mi SE 9.2 mph - N/A Snow Light Snow
9:12 AM 12.2 °F -2.5 °F 10.4 °F 92% 30.07 in 10.0 mi SSE 12.7 mph - N/A   Overcast
9:33 AM 12.2 °F -1.8 °F 12.2 °F 100% 30.06 in 7.0 mi SE 11.5 mph - N/A   Overcast
9:53 AM 14.0 °F 0.5 °F 12.2 °F 93% 30.05 in 7.0 mi SE 11.5 mph - N/A   Overcast
10:12 AM 14.0 °F 1.2 °F 14.0 °F 100% 30.03 in 10.0 mi SE 10.4 mph - N/A   Scattered Clouds
10:33 AM 15.8 °F 1.4 °F 14.0 °F 93% 30.01 in 10.0 mi SE 13.8 mph - N/A   Mostly Cloudy
10:53 AM 15.8 °F 1.4 °F 14.0 °F 93% 29.99 in 10.0 mi SSE 13.8 mph - N/A   Mostly Cloudy
11:12 AM 17.6 °F 3.7 °F 15.8 °F 93% 29.98 in 10.0 mi SSE 13.8 mph - N/A   Scattered Clouds
11:33 AM 19.4 °F 6.6 °F 17.6 °F 93% 29.97 in 10.0 mi SSE 12.7 mph - N/A   Clear
11:53 AM 19.4 °F 6.0 °F 17.6 °F 93% 29.94 in 10.0 mi SSE 13.8 mph - N/A   Clear
12:12 PM 19.4 °F 6.6 °F 17.6 °F 93% 29.93 in 10.0 mi SSE 12.7 mph - N/A   Clear
12:33 PM 21.2 °F 8.9 °F 17.6 °F 86% 29.93 in 10.0 mi SSE 12.7 mph - N/A   Clear
12:52 PM 21.2 °F 8.3 °F 17.6 °F 86% 29.90 in 10.0 mi SSE 13.8 mph - N/A   Clear
1:13 PM 21.2 °F 10.1 °F 17.6 °F 86% 29.89 in 10.0 mi SE 10.4 mph - N/A   Clear
1:32 PM 23.0 °F 11.7 °F 17.6 °F 80% 29.88 in 10.0 mi SSE 11.5 mph - N/A   Clear
1:52 PM 23.0 °F 10.6 °F 17.6 °F 80% 29.86 in 10.0 mi SSE 13.8 mph - N/A   Clear
2:13 PM 23.0 °F 10.1 °F 17.6 °F 80% 29.83 in 10.0 mi SE 15.0 mph 21.9 mph N/A   Clear
2:32 PM 23.0 °F 9.6 °F 17.6 °F 80% 29.82 in 10.0 mi SSE 16.1 mph - N/A   Clear
2:52 PM 23.0 °F 9.6 °F 19.4 °F 86% 29.81 in 10.0 mi SSE 16.1 mph - N/A   Clear
3:13 PM 23.0 °F 10.1 °F 19.4 °F 86% 29.81 in 4.0 mi South 15.0 mph 19.6 mph N/A Snow Light Snow
3:32 PM 23.0 °F 10.6 °F 19.4 °F 86% 29.80 in 10.0 mi South 13.8 mph - N/A   Scattered Clouds
3:52 PM 24.8 °F 16.1 °F 19.4 °F 80% 29.81 in 10.0 mi South 8.1 mph - N/A   Clear
4:13 PM 24.8 °F 16.1 °F 19.4 °F 80% 29.81 in 10.0 mi South 8.1 mph - N/A   Clear
4:32 PM 24.8 °F 13.4 °F 19.4 °F 80% 29.80 in 10.0 mi South 12.7 mph - N/A   Clear
4:52 PM 24.8 °F 14.6 °F 19.4 °F 80% 29.80 in 10.0 mi South 10.4 mph - N/A   Clear
5:13 PM 24.8 °F 16.1 °F 19.4 °F 80% 29.80 in 10.0 mi South 8.1 mph - N/A   Scattered Clouds
5:32 PM 24.8 °F 16.9 °F 19.4 °F 80% 29.81 in 10.0 mi South 6.9 mph - N/A   Scattered Clouds
5:53 PM 24.8 °F 16.9 °F 21.2 °F 86% 29.81 in 10.0 mi South 6.9 mph - N/A   Mostly Cloudy
6:13 PM 26.6 °F 18.2 °F 21.2 °F 80% 29.80 in 10.0 mi South 8.1 mph - N/A   Overcast
6:32 PM 26.6 °F 16.8 °F 21.2 °F 80% 29.78 in 10.0 mi South 10.4 mph - N/A   Mostly Cloudy
6:53 PM 26.6 °F 19.1 °F 21.2 °F 80% 29.78 in 10.0 mi South 6.9 mph - N/A   Mostly Cloudy
7:13 PM 26.6 °F 19.1 °F 21.2 °F 80% 29.78 in 10.0 mi South 6.9 mph - N/A   Mostly Cloudy
7:32 PM 26.6 °F 19.1 °F 21.2 °F 80% 29.79 in 10.0 mi SSW 6.9 mph - N/A   Mostly Cloudy
7:53 PM 26.6 °F 20.0 °F 21.2 °F 80% 29.78 in 10.0 mi SSW 5.8 mph - N/A   Overcast
8:13 PM 26.6 °F 22.6 °F 21.2 °F 80% 29.78 in 10.0 mi SSW 3.5 mph - N/A   Overcast
8:32 PM 28.4 °F 22.2 °F 21.2 °F 74% 29.78 in 10.0 mi SW 5.8 mph - N/A   Overcast
8:53 PM 28.4 °F 24.6 °F 23.0 °F 80% 29.78 in 10.0 mi SW 3.5 mph - N/A   Overcast
9:13 PM 28.4 °F - 23.0 °F 80% 29.78 in 10.0 mi Calm Calm - N/A   Overcast
9:32 PM 28.4 °F 22.2 °F 23.0 °F 80% 29.78 in 10.0 mi WNW 5.8 mph - N/A   Overcast
9:53 PM 28.4 °F 21.2 °F 23.0 °F 80% 29.79 in 10.0 mi WNW 6.9 mph - N/A   Overcast
10:12 PM 30.2 °F 21.3 °F 24.8 °F 80% 29.79 in 10.0 mi NW 10.4 mph - N/A   Overcast
10:33 PM 30.2 °F 19.3 °F 24.8 °F 80% 29.79 in 10.0 mi NW 15.0 mph - N/A   Overcast
10:53 PM 28.4 °F 17.0 °F 26.6 °F 93% 29.80 in 10.0 mi NW 15.0 mph - N/A   Overcast
11:12 PM 28.4 °F 15.4 °F 26.6 °F 93% 29.81 in 10.0 mi NW 19.6 mph 24.2 mph N/A   Overcast
11:33 PM 28.4 °F 15.4 °F 26.6 °F 93% 29.83 in 10.0 mi NNW 19.6 mph 28.8 mph N/A   Overcast
11:53 PM 28.4 °F 16.6 °F 24.8 °F 86% 29.83 in 10.0 mi NNW 16.1 mph 25.3 mph N/A   Overcast